Regional Weather Roundup
Issued by NWS Wakefield, VA

Home | Current Version | Previous Version | Text Only | Print | Product List | Glossary Off
Versions: 1 2 3 4 5 6 7 8 9 10 11 12 13 14 15 16 17 18 19 20 21 22 23 24 25 26 27 28 29 30 31 32 33 34 35 36 37 38 39 40 41 42 43 44 45 46 47 48 49 50

358
ASUS41 KAKQ 050015
RWRAKQ

REGIONAL WEATHER ROUNDUP
NATIONAL WEATHER SERVICE WAKEFIELD VA
800 PM EDT WED MAY 04 2016

Note: "fair" indicates few or no clouds below 12,000 feet with no
significant weather and/or obstructions to visibility. * = Denotes
station may not report precipitation (e.g., rain,snow,etc.),
thunder or fog.

VAZ042-051-052>054-056-050100-
NORTHERN VIRGINIA

CITY           SKY/WX    TMP DP  RH WIND       PRES   REMARKS
WASH NATIONAL  CLOUDY    56  53  90 E12       29.68R
DULLES         LGT RAIN  56  51  84 E9        29.67R
FORT BELVOIR   CLOUDY    55  52  88 VRB5      29.67R
QUANTICO       CLOUDY    58  54  86 E9        29.68R
FREDERICKSBRG* MOCLDY    57  57 100 E8        29.65R
STAFFORD*      MOCLDY    56  54  91 E7        29.70R
WARRENTON      CLOUDY    59  53  80 NE5       29.66R
CULPEPER*      CLOUDY    59  57  94 CALM      29.66R
MANASSAS*      CLOUDY    57  55  94 E6        29.67R
LEESBURG*      CLOUDY    59  55  88 E8        29.68R
WINCHESTER     CLOUDY    55  52  88 CALM      29.65
FRONT ROYAL*   MOCLDY    55  54  94 CALM      29.64R
LURAY*         MOCLDY    57  54  88 N7        29.64R
$$

VAZ048-049-060>072-079>083-050100-
CENTRAL AND SOUTH CENTRAL VIRGINIA

CITY           SKY/WX    TMP DP  RH WIND       PRES   REMARKS
RICHMOND       MOCLDY    58  56  93 E5        29.63R
CHESTERFIELD*  FAIR      61  46  59 E6        29.64R
PETERSBURG*    MOCLDY    64  57  79 NE9       29.62S
HANOVER        MOCLDY    59  57  93 NE3       29.65R
TAPPAHANNOCK*  CLOUDY    58  57  97 NE3       29.67R
QUINTON*       CLOUDY    58  57  96 E6        29.64R
CHARLOTTSVILLE CLOUDY    61  52  72 NE8       29.63R
GORDONSVILLE*  MOCLDY    58  55  88 NE6       29.64R
ORANGE*        CLOUDY    59  57  94 NE3       29.67R
LOUISA*        FAIR      63  57  82 NE6       29.63R
BUMPASS*       CLOUDY    61  57  88 E3        29.64R
FARMVILLE*     MOCLDY    63  50  63 CALM      29.60S
CREWE*         CLOUDY    66  49  55 CALM      29.61S
FORT PICKETT*  NOT AVBL
CHASE CITY*    MOCLDY    62  53  74 CALM      29.61F
CLARKSVILLE*   FAIR      64  50  59 CALM      29.61S
SOUTH HILL*    CLOUDY    64  54  70 CALM      29.66F
LAWRENCEVILLE* FAIR      64  55  72 CALM      29.60F
EMPORIA*       FAIR      61  55  82 CALM      29.61S
$$

VAZ088>098-050100-
SOUTHEAST VIRGINIA

CITY           SKY/WX    TMP DP  RH WIND       PRES   REMARKS
NORFOLK        CLOUDY    57  53  86 E9        29.64S
VIRGINIA BEACH CLOUDY    59  52  77 NE10      29.64R FOG
NORFOLK NAVAL  CLOUDY    58  55  90 NE10      29.65S
WEST POINT*    MOCLDY    57  55  93 NE6       29.65S
SALUDA*        CLOUDY    56  55  95 E7        29.64F
NEWPORT NEWS   CLOUDY    58  55  90 NE8       29.64S
LANGLEY AFB    CLOUDY    59  55  88 NE12      29.64R
FORT EUSTIS    CLOUDY    59  53  82 E9        29.61F
WILLIAMSBURG*  MOCLDY    59  57  94 CALM      29.64F
HR EXEC AP*    CLOUDY    61  55  82 NE8       29.65S
FRANKLIN*      MOCLDY    61  58  88 NE9       29.62R
US460-WAKEFLD  LGT RAIN  59  57  93 VRB5      29.61S
$$

VAZ020-022-025-037-045-050100-
WEST CENTRAL AND SOUTHWEST VIRGINIA

CITY           SKY/WX    TMP DP  RH WIND       PRES   REMARKS
STAUNTON*      MOCLDY    58  52  79 NW7       29.65R
WAYNESBORO*    CLOUDY    59  46  62 N6        29.63R
HOT SPRINGS VA CLOUDY    51  37  58 W6        29.66R
LYNCHBURG      CLOUDY    63  45  51 SW3       29.63R
DANVILLE       FAIR      60  52  74 W3        29.62S
SOUTH BOSTON*  FAIR      63  50  61 NW3       29.62S
MARTINSVILLE   CLOUDY    56  49  80 CALM      29.66R
ROANOKE        MOCLDY    63  40  42 W9        29.64S
BLACKSBURG     FAIR      54  44  68 CALM      29.68S
DUBLIN*        CLOUDY    58  45  61 SW5       29.67S
MARION*        MOCLDY    56  41  57 SW3       29.70S
HILLSVILLE*    CLOUDY    56  41  56 NW6       29.66S
RICHLANDS*     CLOUDY    52  30  43 NW7G16    29.70R
WISE*          LGT RAIN  48  43  81 W3        29.70F
ABINGDON*      CLOUDY    58  40  50 NW12G17   29.69R
$$

MDZ021>025-VAZ099-100-050100-
SOUTHERN MARYLAND AND THE DELMARVA PENINSULA

CITY           SKY/WX    TMP DP  RH WIND       PRES   REMARKS
PATUXENT RIVER CLOUDY    56  52  86 NE7       29.67R
BAY BRIDGE APT NOT AVBL
LEONARDTOWN    CLOUDY    54  52  94 E3        29.69R
DOVER          CLOUDY    51  51 100 NE7       29.69R
GEORGETOWN     CLOUDY    52  49  89 NE10      29.69R
EASTON         CLOUDY   N/A N/A N/A NE7       29.72
CAMBRIDGE      CLOUDY    52  50  93 CALM      29.68R
SALISBURY      CLOUDY    53  50  89 NE8       29.68R
OCEAN CITY     CLOUDY    50  49  96 NE14G21   29.68R
WALLOPS ISLAND CLOUDY    54  52  93 N6        29.67S FOG
ACCOMACK*      CLOUDY   N/A N/A N/A NE6       29.66S HAZE
$$

NCZ012>017-030>032-050100-
NORTH CENTRAL AND EASTERN NORTH CAROLINA

CITY           SKY/WX    TMP DP  RH WIND       PRES   REMARKS
ROANOKE RAPIDS FAIR      64  54  68 CALM      29.59S
RALEIGH        PTCLDY    66  48  52 CALM      29.61F
ELIZABETH CITY CLOUDY    60  57  89 NE13      29.62S
AHOSKIE*       MOCLDY    65  61  85 CALM      29.60S
EDENTON*       MOCLDY    66  65  96 E10       29.61R
CURRITUCK*     NOT AVBL
KILL DEVIL HLS CLOUDY    57  56  96 NE8       29.62R FOG
MANTEO         CLOUDY    56  56 100 NE14      29.63S
CAPE HATTERAS  CLOUDY    63  62  97 NE10G17   29.59S
TARBORO*       FAIR      70  60  71 CALM      29.60S
GOLDSBORO      CLEAR     71  53  53 N3        29.57S
WASHINGTON     CLOUDY    69  61  77 NE6       29.58R
GREENVILLE     CLOUDY    72  55  56 CALM      29.62S
NEW BERN       PTCLDY    71  59  65 N3        29.59R
WILMINGTON     MOCLDY    72  58  61 N5        29.58R
$$

VAZ048-050100-
ELSEWHERE

CITY           SKY/WX    TMP DP  RH WIND       PRES   REMARKS
HARRISBURG PA  CLOUDY    53  49  86 E9        29.70R
BALTIMORE      DRIZZLE   53  51  93 E10       29.70R FOG
ANNAPOLIS      CLOUDY    53  52  96 NE6       29.70R FOG
ANDREWS AFB    CLOUDY    53  52  95 E8        29.68S FOG
PHILADELPHIA   CLOUDY    52  46  80 NE10G21   29.73R
HENDERSON NC   CLOUDY    65  56  72 CALM      29.61F
GREENSBORO     PTCLDY    65  44  46 NW3       29.62S
ROCKY MOUNT    CLEAR     68  55  63 NW5       29.59S
$$

VAZ100-050100-
MARINE

STATION/POSITION TIME  TEMP    WIND        PRES    WAVE   SWELL
                       AIR SEA DIR/SP/G            HT/PER HT/PER
                 (UTC) (F)     (DEG/KT/KT) (MB)    (FT/S) (FT/S)
BRANDYWINE LGT   2300                      1004.8R
CAPE MAY NJ      2300      58              1004.6R
LEWES DE         2300      56              1004.9R
15NM E FENWICK I 2350   50 51              1004.4R   6/ 6
OCEAN-CITY-INLET 2300      55              1004.1R
WACHAPREAGUE VA  2300      62              1003.8R
THOMAS POINT MD  0000   54 59   50/ 10/ 12 1006.7R
GOOSES REEF MD   0000   56 59   80/  8/ 10 1006.2R   1/ 2
COVE POINT MD    2300                      1004.9R
SOLOMONS ISLAND  2300      61                N/A
BISHOPS HEAD MD  2300      61              1003.9R
PINEY POINT MD   2306           90/  7/  9   N/A
POTOMAC MD       0000   56 60   80/ 12/ 14 1003.6R   1/ 2
CAMBRIDGE MD     2300      62              1003.7R
LEWISETTA VA     2300      63              1003.9R
RAPPAHANNOCK LGT 2300                      1004.8R
STINGRAY PT      2300   57 62   50/ 12/ 14 1004.6R   2/ 3
YORK RVR RNG VA  2300                      1003.2R
YORKTOWN VA      2300      63              1003.7R
JAMESTOWN VA     0000   58 68   90/  8/ 12   N/A     0
DOMINION TERM VA 2300                      1003.5F
KIPTOPEKE VA     2300      62                N/A
CHES BAY BRIDGE  2300      61              1003.1F
CAPE HENRY VA    2306           40/ 15/ 16   N/A
CHESAPEAKE LGHT  2300   53      40/ 17/ 18 1004.1F
WILLOUBY STN VA  2300                      1004.5S
CAPE HENRY BUOY  2312      57                N/A     3/ 6
CAPE CHARLES BUO 2326      58                N/A     3/ 7   2/ 7
OFFSHORE WE BUOY 2321      56                N/A     4/ 6   2/11
64NM E OF VA BCH 2350   53 55   10/ 12/ 14 1003.0R   3/ 7   3/ 7
DUCK PIER NC     2300      60              1002.4F
44100 DUCK FRF   2324      59                N/A     4/ 8
44056 DUCK FRF   2311      59                N/A     3/ 4
OREGON INLET NC  2300      67              1002.7R
HATTERAS NC      2300      70              1001.8R
DIAMOND SHLS NC  2350   70 71  260/  4/  4 1001.7R   3/ 8   3/ 8
CAPE LOOKOUT NC  0000   69     330/  5/  5 1000.9F
$$




USA.gov is the U.S. government's official web portal to all federal, state and local government web resources and services.